Location: The Saddle
(36.8333°N, 80.3417°W)
Time: 13:49:19
(UTC-05:00)

A-11 Canister half - Pass Details

Date: 11 December 2023
Orbit: 1512 x 1687 km, 47.2° (Epoch: 28 February)

Event Time Altitude Azimuth Distance (km) Brightness Sun altitude
Rises 20:00:48 0° 187° (S) 4,641 11.7 -34.3°
Reaches altitude 10° 20:04:38 10° 174° (S) 3,673 10.9 -35.1°
Enters shadow 20:06:15 14° 165° (SSE) 3,336 10.6 -35.4°
Maximum altitude 20:11:23 23° 126° (SE) 2,820 - -36.4°
Drops below altitude 10° 20:18:15 10° 79° (ENE) 3,760 - -37.8°
Sets 20:22:10 0° 66° (ENE) 4,777 - -38.6°
